• In Hungary
  • List of Countries
  • For 7 days
  • Water Temperature
  • Satellite Maps
  • Weather Map
  • News
  • Weather Widgets
  • user-avatar
    Login

    Hourly Weather Ipswich

    Today, 21 October, Sunday

    Time Temperature Precipitation Wind Pressure Humidity
    00:00 +13°C° 0 mm 2 mps 771 mmHg 90%
    01:00 +12°C° 0 mm 3 mps 770 mmHg 91%
    02:00 +11°C° 0 mm 3 mps 770 mmHg 91%
    03:00 +11°C° 0 mm 3 mps 770 mmHg 92%
    04:00 +11°C° 0 mm 3 mps 769 mmHg 92%
    05:00 +11°C° 0 mm 3 mps 769 mmHg 93%
    06:00 +11°C° 0 mm 3 mps 769 mmHg 93%
    07:00 +12°C° 0 mm 3 mps 769 mmHg 88%
    08:00 +13°C° 0 mm 3 mps 769 mmHg 82%
    09:00 +13°C° 0 mm 4 mps 769 mmHg 77%
    10:00 +15°C° 0 mm 4 mps 769 mmHg 71%
    11:00 +17°C° 0 mm 4 mps 769 mmHg 65%
    12:00 +18°C° 0 mm 4 mps 769 mmHg 58%
    13:00 +19°C° 0 mm 4 mps 769 mmHg 59%
    14:00 +19°C° 0 mm 4 mps 768 mmHg 59%
    15:00 +19°C° 0 mm 4 mps 768 mmHg 59%
    16:00 +18°C° 0 mm 3 mps 768 mmHg 66%
    17:00 +17°C° 0 mm 3 mps 768 mmHg 73%
    18:00 +16°C° 0 mm 3 mps 768 mmHg 80%
    19:00 +15°C° 0.1 mm 4 mps 769 mmHg 80%
    20:00 +15°C° 0.1 mm 5 mps 769 mmHg 81%
    21:00 +15°C° 0.1 mm 6 mps 770 mmHg 81%
    22:00 +14°C° 0.1 mm 7 mps 770 mmHg 78%
    23:00 +12°C° 0.1 mm 8 mps 771 mmHg 75%

    Tomorrow, 22 October, Monday

    Time Temperature Precipitation Wind Pressure Humidity
    00:00 +12°C° 0.1 mm 8 mps 771 mmHg 72%
    01:00 +11°C° 0.1 mm 8 mps 772 mmHg 73%
    02:00 +10°C° 0.1 mm 8 mps 772 mmHg 73%
    03:00 +9°C° 0.1 mm 8 mps 772 mmHg 73%
    04:00 +9°C° 0 mm 8 mps 773 mmHg 73%
    05:00 +7°C° 0 mm 8 mps 773 mmHg 72%
    06:00 +8°C° 0 mm 7 mps 774 mmHg 72%
    07:00 +8°C° 0 mm 7 mps 775 mmHg 69%
    08:00 +9°C° 0 mm 7 mps 775 mmHg 65%
    09:00 +9°C° 0 mm 8 mps 776 mmHg 62%
    10:00 +10°C° 0 mm 7 mps 776 mmHg 59%
    11:00 +11°C° 0 mm 7 mps 776 mmHg 57%
    12:00 +11°C° 0 mm 6 mps 777 mmHg 54%
    13:00 +11°C° 0 mm 6 mps 777 mmHg 54%
    14:00 +11°C° 0 mm 6 mps 777 mmHg 54%
    15:00 +12°C° 0 mm 5 mps 777 mmHg 54%
    16:00 +10°C° 0 mm 5 mps 777 mmHg 57%
    17:00 +10°C° 0 mm 4 mps 777 mmHg 60%
    18:00 +9°C° 0 mm 3 mps 777 mmHg 64%
    19:00 +7°C° 0 mm 4 mps 777 mmHg 64%
    20:00 +7°C° 0 mm 4 mps 777 mmHg 65%
    21:00 +7°C° 0 mm 4 mps 777 mmHg 65%
    22:00 +6°C° 0 mm 4 mps 777 mmHg 70%
    23:00 +6°C° 0 mm 4 mps 776 mmHg 74%

    Day after tomorrow, 23 October, Tuesday

    Time Temperature Precipitation Wind Pressure Humidity
    00:00 +6°C° 0 mm 5 mps 776 mmHg 79%
    01:00 +6°C° 0 mm 5 mps 776 mmHg 80%
    02:00 +5°C° 0 mm 6 mps 775 mmHg 81%
    03:00 +5°C° 0 mm 6 mps 774 mmHg 83%
    04:00 +5°C° 0 mm 6 mps 774 mmHg 84%
    05:00 +5°C° 0 mm 7 mps 774 mmHg 84%
    06:00 +5°C° 0 mm 7 mps 773 mmHg 85%
    07:00 +6°C° 0 mm 7 mps 773 mmHg 82%
    08:00 +7°C° 0 mm 8 mps 773 mmHg 79%
    09:00 +9°C° 0 mm 8 mps 772 mmHg 75%
    10:00 +11°C° 0 mm 8 mps 772 mmHg 70%
    11:00 +12°C° 0 mm 8 mps 772 mmHg 64%
    12:00 +15°C° 0 mm 9 mps 772 mmHg 58%
    13:00 +15°C° 0 mm 8 mps 771 mmHg 58%
    14:00 +15°C° 0 mm 8 mps 771 mmHg 59%
    15:00 +15°C° 0 mm 8 mps 770 mmHg 59%
    16:00 +15°C° 0 mm 8 mps 770 mmHg 63%
    17:00 +13°C° 0 mm 8 mps 770 mmHg 67%
    18:00 +12°C° 0 mm 8 mps 770 mmHg 71%
    19:00 +12°C° 0 mm 8 mps 770 mmHg 74%
    20:00 +12°C° 0 mm 8 mps 771 mmHg 76%
    21:00 +11°C° 0 mm 8 mps 771 mmHg 79%
    22:00 +11°C° 0 mm 8 mps 771 mmHg 81%
    23:00 +11°C° 0 mm 7 mps 771 mmHg 83%

    24 October, Wednesday

    Time Temperature Precipitation Wind Pressure Humidity
    00:00 +11°C° 0 mm 7 mps 771 mmHg 84%
    01:00 +11°C° 0 mm 7 mps 771 mmHg 86%
    02:00 +11°C° 0 mm 7 mps 770 mmHg 88%
    03:00 +11°C° 0 mm 7 mps 770 mmHg 90%
    04:00 +11°C° 0 mm 7 mps 770 mmHg 91%
    05:00 +11°C° 0 mm 6 mps 770 mmHg 92%
    06:00 +11°C° 0 mm 6 mps 770 mmHg 92%
    07:00 +13°C° 0 mm 6 mps 770 mmHg 88%
    08:00 +14°C° 0 mm 6 mps 771 mmHg 84%
    09:00 +15°C° 0 mm 6 mps 771 mmHg 81%
    10:00 +16°C° 0 mm 5 mps 771 mmHg 76%
    11:00 +17°C° 0 mm 5 mps 771 mmHg 72%
    12:00 +19°C° 0 mm 5 mps 771 mmHg 68%
    13:00 +19°C° 0 mm 4 mps 771 mmHg 68%
    14:00 +19°C° 0 mm 4 mps 770 mmHg 68%
    15:00 +19°C° 0 mm 3 mps 770 mmHg 68%
    16:00 +17°C° 0 mm 3 mps 770 mmHg 73%
    17:00 +16°C° 0 mm 3 mps 770 mmHg 78%
    18:00 +14°C° 0 mm 3 mps 769 mmHg 84%
    19:00 +13°C° 0 mm 3 mps 769 mmHg 84%
    20:00 +12°C° 0 mm 4 mps 769 mmHg 84%
    21:00 +11°C° 0 mm 4 mps 769 mmHg 85%
    22:00 +10°C° 0 mm 4 mps 769 mmHg 86%
    23:00 +8°C° 0 mm 4 mps 769 mmHg 87%

    25 October, Thursday

    Time Temperature Precipitation Wind Pressure Humidity
    00:00 +8°C° 0 mm 4 mps 769 mmHg 88%
    01:00 +7°C° 0 mm 4 mps 768 mmHg 90%
    02:00 +7°C° 0 mm 4 mps 768 mmHg 91%
    03:00 +7°C° 0 mm 4 mps 768 mmHg 93%
    04:00 +6°C° 0 mm 4 mps 767 mmHg 93%
    05:00 +6°C° 0 mm 4 mps 767 mmHg 94%
    06:00 +6°C° 0 mm 4 mps 766 mmHg 95%
    07:00 +6°C° 0 mm 4 mps 766 mmHg 90%
    08:00 +7°C° 0 mm 4 mps 766 mmHg 86%
    09:00 +8°C° 0 mm 4 mps 766 mmHg 81%
    10:00 +10°C° 0 mm 4 mps 766 mmHg 75%
    11:00 +12°C° 0 mm 3 mps 766 mmHg 68%
    12:00 +13°C° 0 mm 3 mps 765 mmHg 61%
    13:00 +13°C° 0 mm 3 mps 765 mmHg 61%
    14:00 +13°C° 0 mm 3 mps 764 mmHg 60%
    15:00 +13°C° 0 mm 3 mps 764 mmHg 60%
    16:00 +12°C° 0 mm 3 mps 763 mmHg 67%
    17:00 +11°C° 0 mm 3 mps 763 mmHg 74%
    18:00 +10°C° 0 mm 3 mps 762 mmHg 81%
    19:00 +9°C° 0 mm 3 mps 762 mmHg 83%
    20:00 +9°C° 0 mm 3 mps 762 mmHg 86%
    21:00 +8°C° 0 mm 3 mps 761 mmHg 89%
    22:00 +8°C° 0 mm 3 mps 761 mmHg 87%
    23:00 +8°C° 0 mm 3 mps 760 mmHg 86%

    26 October, Friday

    Time Temperature Precipitation Wind Pressure Humidity
    00:00 +8°C° 0 mm 3 mps 760 mmHg 85%
    01:00 +8°C° 0.1 mm 3 mps 759 mmHg 86%
    02:00 +7°C° 0.1 mm 4 mps 758 mmHg 86%
    03:00 +8°C° 0.1 mm 4 mps 758 mmHg 87%
    04:00 +7°C° 0.6 mm 4 mps 757 mmHg 88%
    05:00 +7°C° 0.6 mm 4 mps 756 mmHg 90%
    06:00 +7°C° 0.6 mm 4 mps 756 mmHg 91%
    07:00 +7°C° 0.3 mm 4 mps 756 mmHg 88%
    08:00 +8°C° 0.3 mm 5 mps 755 mmHg 85%
    09:00 +8°C° 0.3 mm 5 mps 755 mmHg 82%
    10:00 +9°C° 0 mm 5 mps 755 mmHg 80%
    11:00 +9°C° 0 mm 5 mps 755 mmHg 78%
    12:00 +10°C° 0 mm 6 mps 754 mmHg 76%
    13:00 +9°C° 0.2 mm 6 mps 754 mmHg 74%
    14:00 +9°C° 0.2 mm 7 mps 754 mmHg 71%
    15:00 +9°C° 0.2 mm 8 mps 754 mmHg 69%
    16:00 +7°C° 0.1 mm 8 mps 754 mmHg 70%
    17:00 +6°C° 0.1 mm 8 mps 754 mmHg 71%
    18:00 +6°C° 0.1 mm 8 mps 755 mmHg 72%
    19:00 +5°C° 0 mm 8 mps 755 mmHg 73%
    20:00 +5°C° 0 mm 7 mps 755 mmHg 74%
    21:00 +5°C° 0 mm 7 mps 755 mmHg 75%
    22:00 +5°C° 0.1 mm 7 mps 755 mmHg 75%
    23:00 +4°C° 0.1 mm 7 mps 755 mmHg 74%
    Show more